Regional Weather Roundup
Issued by NWS

Home | Current Version | Previous Version | Text Only | Print | Product List | Glossary Off
Versions: 1 2 3 4 5 6 7 8 9 10 11 12 13 14 15 16 17 18 19 20 21 22 23 24 25 26 27 28 29 30 31 32 33 34 35 36 37 38 39 40 41 42 43 44 45 46 47 48 49 50

000
ASUS43 KDMX 301808
RWRIA

WEATHER ROUNDUP FOR IOWA
NATIONAL WEATHER SERVICE DES MOINES IA
100 PM CDT MON MAY 30 2016

NOTE: "FAIR" INDICATES FEW OR NO CLOUDS BELOW 12,000 FEET WITH NO
SIGNIFICANT WEATHER AND/OR OBSTRUCTIONS TO VISIBILITY.

* - THESE STATIONS ARE NOT NWS STATIONS...THUS NOT UNDER NWS
QUALITY CONTROL.  THEY ALSO DO NOT REPORT WEATHER SUCH
AS PRECIPITATION OR FOG.

IAZ001>003-012>014-020>022-031>034-043>046-301900-
   NORTHWEST IOWA

CITY           SKY/WX    TMP DP  RH WIND       PRES   REMARKS
CARROLL *      SUNNY     84  57  39 SE12      29.97F HX  83
CHEROKEE *     SUNNY     81  60  48 S5        29.96F HX  81
DENISON *      SUNNY     84  55  37 S7G16     29.94F HX  83
LE MARS *      SUNNY     82  57  42 S13       29.95F HX  82
ORANGE CITY *  SUNNY     79  57  47 S9        29.96F HX  80
SHELDON *      SUNNY     79  59  50 SE14      29.95F HX  80
SIOUX CITY     PTSUNNY   84  59  42 SE14      29.93F HX  84
6HR MIN TEMP:  64; 6HR MAX TEMP:  84;

SPENCER        MOSUNNY   80  56  43 SE15      29.98F HX  80
6HR MIN TEMP:  59; 6HR MAX TEMP:  80;

STORM LAKE *     N/A     82  55  39 SW12      29.98F HX  82
$$

IAZ055>058-069>071-079>083-090>094-301900-
   SOUTHWEST IOWA

CITY           SKY/WX    TMP DP  RH WIND       PRES   REMARKS
ATLANTIC *     SUNNY     82  61  47 S15       29.97F HX  83
AUDUBON *        N/A     82  59  44 S8        29.99F HX  82
CLARINDA *       N/A     84  68  58 MISG      29.99F HX  87
COUNCIL BLFS * SUNNY     82  64  54 S7G13     29.97F HX  84
CRESTON *      MOSUNNY   82  63  51 S17       30.01F HX  83
HARLAN  *      SUNNY     84  59  42 SW10G17   30.00F HX  84
LAMONI         MOSUNNY   82  65  56 S8        30.00F HX  84
6HR MIN TEMP:  64; 6HR MAX TEMP:  82;

RED OAK *      SUNNY     84  63  48 S9G18     29.97F HX  85
SHENANDOAH *   MOSUNNY   86  64  48 S14G21    29.97F HX  87
$$

IAZ047>049-059>061-072>074-084-301900-
   CENTRAL IOWA

CITY           SKY/WX    TMP DP  RH WIND       PRES   REMARKS
AMES           SUNNY     83  63  50 SE9       29.99F HX  84
6HR MIN TEMP:  64; 6HR MAX TEMP:  83;

ANKENY *       SUNNY     84  64  51 VRB6G12   29.98F HX  86
BOONE *        SUNNY     82  59  44 S12G18    29.98F HX  82
CHARITON *     SUNNY     84  63  48 SW9       30.00F HX  85
DES MOINES     PTSUNNY   85  60  42 S10G18    29.98F HX  85
6HR MIN TEMP:  67; 6HR MAX TEMP:  85;

GRINNELL*      SUNNY     81  61  50 SE14G22   30.01F HX  81
KNOXVILLE *    SUNNY     84  61  45 VRB5G13   29.98F HX  84
MARSHALLTOWN   SUNNY     79  59  50 SE18      30.00F HX  80
6HR MIN TEMP:  64; 6HR MAX TEMP:  79;

NEWTON *       SUNNY     82  63  51 S8G18     29.99F HX  83
PELLA *        SUNNY     84  63  49 SE6       30.01F HX  85
PERRY *          N/A     84  61  45 S8        29.97F HX  84
$$

IAZ004>006-015-016-023>025-035-036-301900-
   NORTH CENTRAL IOWA

CITY           SKY/WX    TMP DP  RH WIND       PRES   REMARKS
ALGONA *       SUNNY     79  55  44 SE15G21   30.00S
CLARION *      SUNNY     79  63  57 SE14G22   30.00F HX  80
ESTHERVILLE    SUNNY     77  58  51 S18G24    29.99S
6HR MIN TEMP:  58; 6HR MAX TEMP:  77; 6HR PCP: TRACE;

FORT DODGE *   SUNNY     81  57  44 SE12G17   29.99F HX  81
MASON CITY     SUNNY     77  54  44 SE15      30.02F
6HR MIN TEMP:  59; 6HR MAX TEMP:  78;

FOREST CITY *  SUNNY     77  52  41 SE12      30.01S
WEBSTER CITY * SUNNY     82  57  42 SE16G26   29.97F HX  82
IOWA FALLS *     N/A     81  55  41 SE16      30.02F HX  80
$$

IAZ007>011-017>019-026>030-037>042-050>054-066-301900-
   NORTHEAST IOWA

CITY           SKY/WX    TMP DP  RH WIND       PRES   REMARKS
CEDAR RAPIDS   SUNNY     79  61  53 SE13      30.02F HX  80
6HR MIN TEMP:  64; 6HR MAX TEMP:  79; 6HR PCP: TRACE;

CHARLES CITY * SUNNY     79  48  34 E12G20    30.02F
CLINTON *      MOSUNNY   82  56  40 NW12G18   30.03F HX  82
DECORAH *      SUNNY     79  48  34 VRB6G14   30.02S
DUBUQUE        CLOUDY    78  48  34 E6        30.02F
6HR MIN TEMP:  65; 6HR MAX TEMP:  79;

MONTICELLO *   SUNNY     79  55  44 SE9G15    30.01F
OELWEIN *      SUNNY     77  55  47 S13       30.04R
WATERLOO       SUNNY     77  58  51 SE8       30.01S
6HR MIN TEMP:  59; 6HR MAX TEMP:  77; 6HR PCP: TRACE;

$$

IAZ064-065-067-068-078-301900-
   EAST CENTRAL IOWA

CITY           SKY/WX    TMP DP  RH WIND       PRES   REMARKS
DAVENPORT      SUNNY     80  55  42 NW9       30.04F HX  80
6HR MIN TEMP:  67; 6HR MAX TEMP:  80; 6HR PCP: TRACE;

IOWA CITY      SUNNY     80  59  48 NE6       30.03F HX  81
6HR MIN TEMP:  65; 6HR MAX TEMP:  80; 6HR PCP:  0.03;

MT. PLEASANT * SUNNY     84  66  55 S3        30.03F HX  86
MUSCATINE *    SUNNY     81  59  47 VRB5G13   30.03F HX  81
QUAD CITIES    SUNNY     84  61  45 NW7       30.02F HX  84
6HR MIN TEMP:  68; 6HR MAX TEMP:  84; 6HR PCP:  0.01;

$$

IAZ062-063-075>077-085>089-095>099-301900-
   SOUTHEAST IOWA

CITY           SKY/WX    TMP DP  RH WIND       PRES   REMARKS
BURLINGTON     SUNNY     81  60  48 SE3       30.03F HX  82
6HR MIN TEMP:  68; 6HR MAX TEMP:  81;

FAIRFIELD *      N/A    N/A N/A N/A MISG        N/A
FORT MADISON * SUNNY     82  63  51 CALM      30.04F HX  83
KEOKUK *       SUNNY     82  64  54 VRB6      30.03F HX  84
OSKALOOSA *      N/A     83  64  53 CALM      30.01F HX  84
OTTUMWA        SUNNY     83  67  58 VRB3      30.01F HX  85
6HR MIN TEMP:  65; 6HR MAX TEMP:  83;

WASHINGTON *   SUNNY     82 -31   1 VRB5      30.04F
$$

ABBREVIATIONS USED IN REMARKS
   TC - TEMPERATURES IN CELSIUS
  WCI - WIND CHILL INDEX
   HX - HEAT INDEX
  VSB - VISIBILITY
$$





USA.gov is the U.S. government's official web portal to all federal, state and local government web resources and services.